Home > Time Zones > World Clock > Weather > Japan > Kobe > Past weeks

Flag for Japan Weather past 2 weeks in Kobe, Japan

Now
48 °F

Passing clouds.


Feels Like: 47 °F
Forecast: 51 / 67 °F
Wind: 3 mph from Northwest

Location: Osaka International Airport


UV Index: 7 (High)

Visibility: N/A


Pressure: 30.18 "Hg

Humidity: 66%

Dew point: 37 °F

Location of KobeLocation

Historic Weather in Kobe

°F

Kobe temperature yesterday

Maximum temperature yesterday: 72 °F (at 3:00 PM)
Minimum temperature yesterday: 46 °F (at 5:00 AM)
Average temperature yesterday: 62 °F

Past Weeks' High & Low Weather Summary

 TemperatureHumidityPressure
High75 °F (Apr 17, 2:00 PM)88% (Apr 18, 6:00 AM)30.18 "Hg (Apr 18, 6:00 AM)
Low41 °F (Apr 12, 5:00 AM)13% (Apr 14, 3:00 PM)29.83 "Hg (Apr 18, 2:00 PM)
Average60 °F44%30.00 "Hg
* Reported Apr 9 5:00 AM — Apr 24 5:00 AM, Kobe, Weather by CustomWeather, © 2014

Note: Actual official high and low records may vary slightly from our data, if they occured in-between our weather recording intervals... More about our weather records

Advertising

Historic Weather Conditions — Data for Previous 24 hours

 ConditionsComfort  
Time TempWeatherWind HumidityBarometerVisibility
5:00 AM
Apr 24
46 °FClear.5 mph71%30.18 "Hg10 mi
8:00 PM
Apr 23
61 °FPassing clouds.9 mph31%30.07 "HgN/A
7:00 PM63 °FPassing clouds.10 mph34%30.04 "HgN/A
6:00 PM66 °FPassing clouds.17 mph24%30.01 "HgN/A
5:00 PM68 °FPassing clouds.13 mph18%29.98 "HgN/A
4:00 PM70 °FPassing clouds.16 mph15%29.98 "HgN/A
3:00 PM72 °FPassing clouds.12 mph16%29.98 "HgN/A
2:00 PM70 °FPassing clouds.9 mph20%29.98 "HgN/A
1:00 PM70 °FPassing clouds.8 mph29%30.01 "HgN/A
12:00 PM68 °FPassing clouds.9 mph30%30.01 "HgN/A
11:00 AM66 °FPassing clouds.3 mph26%30.01 "HgN/A
10:00 AM64 °FPassing clouds.3 mph37%30.04 "HgN/A
9:00 AM59 °FSunny.1 mph45%30.04 "Hg10 mi
8:00 AM55 °FSunny.1 mph55%30.04 "Hg10 mi
7:00 AM52 °FSunny.1 mph62%30.01 "Hg10 mi
6:00 AM48 °FPassing clouds.3 mph71%30.01 "HgN/A
Weather by CustomWeather, © 2014

See weather overview